Location: Kaarina
(60.4167°N, 22.4167°E)
Time: 13:18:27
(UTC+03:00)

Cosmos 1441 Rocket - Pass Details

Date: 24 August 2019
Orbit: 496 x 542 km, 81.1° (Epoch: 18 September)

Event Time Altitude Azimuth Distance (km) Brightness Sun altitude
Exits shadow 23:51:06 27° 122° (ESE) 1,069 4.3 -15.8°
Maximum altitude 23:52:05 30° 94° (E) 977 4.3 -15.9°
Drops below altitude 10° 23:55:34 10° 32° (NNE) 1,796 6.4 -16.0°
Sets 23:57:53 0° 22° (NNE) 2,684 7.5 -16.2°
